Change the Weather History Date:

Friday, March 1, 2013

  Actual Average Record
Temperature  
Mean Temperature 40 °F -  
Max Temperature 44 °F 48 °F - ()
Min Temperature 37 °F 40 °F - ()
Degree Days  
Heating Degree Days 24    
Moisture  
Dew Point 33 °F    
Average Humidity 73    
Maximum Humidity 87    
Minimum Humidity 61    
Precipitation  
Precipitation 0.00 in - - ()
Sea Level Pressure  
Sea Level Pressure 30.35 in    
Wind  
Wind Speed 13 mph ()    
Max Wind Speed 20 mph    
Max Gust Speed 30 mph    
Visibility 6.9 miles    
Events Rain    
T = Trace of Precipitation, MM = Missing Value Source: Averaged Metar Reports

Daily Weather History Graph

Daily Weather History Graph

Search for Another Location

Airport or City:

Trip Planner

Search our weather history database for the weather conditions in past years. The results will help you decide how hot, cold, wet, or windy it might be!

Date:

Astronomy

Mar. 01, 2013 Rise Set
Actual Time 7:04 AM GMT 6:03 PM GMT
Civil Twilight 6:31 AM GMT 6:35 PM GMT
Nautical Twilight 5:54 AM GMT 7:13 PM GMT
Astronomical Twilight 5:16 AM GMT 7:50 PM GMT
Moon 10:52 PM GMT (3/1) 8:14 AM GMT (3/1)
Length of Visible Light 12h 03m
Length of Day
10h 58m
Waning Gibbous, 85% of the Moon is Illuminated
Mar 1
Waning Gibbous
Mar 4
Last Quarter
Mar 11
New
Mar 19
First Quarter
Mar 27
Full

Hourly Weather History & Observations

Time (GMT) Temp. Windchill Dew Point Humidity Pressure Visibility Wind Dir Wind Speed Gust Speed Precip Events Conditions
12:50 AM 41.0 °F 33.9 °F 28.4 °F 61% 30.30 in - ENE 12.7 mph - N/A   Clear
1:50 AM 39.2 °F 32.0 °F 30.2 °F 70% 30.30 in 6.2 mi ENE 11.5 mph - N/A   Mostly Cloudy
2:50 AM 40 °F - 31 °F 61% 30.34 in 10 mi ENE 15.0 mph - -   Haze
2:50 AM 39.2 °F 29.8 °F 32.0 °F 75% 30.30 in 6.2 mi ENE 18.4 mph - N/A   Mostly Cloudy
3:50 AM 39.2 °F 32.0 °F 32.0 °F 75% 30.33 in 6.2 mi ENE 11.5 mph - N/A   Overcast
4:50 AM 39.2 °F 32.5 °F 33.8 °F 81% 30.33 in 6.2 mi ENE 10.4 mph - N/A   Overcast
5:50 AM 39 °F - 32 °F 69% 30.35 in 6 mi ENE 13.8 mph - -   Haze
6:50 AM 37.4 °F 27.5 °F 30.2 °F 75% 30.33 in 3.1 mi ENE 18.4 mph - N/A   Haze
7:50 AM 37.4 °F 27.8 °F 32.0 °F 81% 30.33 in 5.0 mi ENE 17.3 mph - N/A   Haze
8:50 AM 38 °F - 31 °F 68% 30.38 in 5 mi East 19.6 mph - -   Haze
8:50 AM 39.2 °F 29.6 °F 32.0 °F 75% 30.36 in 5.0 mi East 19.6 mph - N/A   Haze
9:50 AM 39.2 °F 30.2 °F 32.0 °F 75% 30.36 in 6.2 mi East 17.3 mph 29.9 mph N/A   Mostly Cloudy
10:50 AM 39.2 °F 29.6 °F 32.0 °F 75% 30.36 in 6.2 mi East 19.6 mph - N/A   Mostly Cloudy
11:50 AM 41 °F - 34 °F 68% 30.39 in 9 mi East 16.1 mph - - Rain Light Rain
11:50 AM 41.0 °F 32.8 °F 33.8 °F 76% 30.36 in 6.2 mi East 16.1 mph - N/A   Mostly Cloudy
12:50 PM 42.8 °F 34.8 °F 33.8 °F 70% 30.36 in 6.2 mi East 17.3 mph - N/A   Mostly Cloudy
1:50 PM 42.8 °F 35.1 °F 33.8 °F 70% 30.36 in 6.2 mi East 16.1 mph - N/A   Mostly Cloudy
2:50 PM 43 °F - 34 °F 62% 30.37 in 12 mi East 16.1 mph - -   Partly Cloudy
2:50 PM 42.8 °F 35.1 °F 33.8 °F 70% 30.33 in 6.2 mi East 16.1 mph 28.8 mph N/A   Mostly Cloudy
3:50 PM 42.8 °F 35.4 °F 35.6 °F 76% 30.33 in 6.2 mi East 15.0 mph - N/A   Mostly Cloudy
4:50 PM 42.8 °F 36.2 °F 35.6 °F 76% 30.33 in 6.2 mi East 12.7 mph - N/A   Mostly Cloudy
5:50 PM 43 °F - 36 °F 68% 30.37 in 12 mi East 10.4 mph - -   Partly Cloudy
5:50 PM 42.8 °F 37.0 °F 35.6 °F 76% 30.36 in 6.2 mi East 10.4 mph - N/A   Mostly Cloudy
6:50 PM 42.8 °F 37.5 °F 35.6 °F 76% 30.36 in 6.2 mi ENE 9.2 mph - N/A   Mostly Cloudy
7:50 PM 42.8 °F 38.0 °F 35.6 °F 76% 30.36 in 6.2 mi ENE 8.1 mph - N/A   Haze
8:50 PM 42 °F - 36 °F 73% 30.39 in 12 mi ENE 10.4 mph - -   Mostly Cloudy
8:50 PM 41.0 °F 34.7 °F 35.6 °F 81% 30.36 in 6.2 mi ENE 10.4 mph - N/A   Mostly Cloudy
9:50 PM 41.0 °F 35.2 °F 37.4 °F 87% 30.39 in 6.2 mi ENE 9.2 mph - N/A Rain Light Rain Showers
10:50 PM 41.0 °F 35.8 °F 33.8 °F 76% 30.39 in 6.2 mi ENE 8.1 mph - N/A   Haze
11:50 PM 40 °F - 32 °F 65% 30.39 in 9 mi NE 9.2 mph - -   Haze
11:50 PM 41.0 °F 35.2 °F 32.0 °F 70% 30.36 in 6.2 mi NE 9.2 mph - N/A   Haze